Location: Anglesey
(53.1800°N, 4.2200°W)
Time: 09:47:26
(UTC+00:00)

OTV 5 (USA 277) - Pass Details

Date: 14 October 2017
Orbit: 404 x 417 km, 43.0° (Epoch: 07 September)

Event Time Altitude Azimuth Distance (km) Brightness Sun altitude
Rises 19:56:09 0° 233° (SW) 2,352 ? -14.7°
Reaches altitude 10° 19:58:59 10° 207° (SSW) 1,490 ? -15.1°
Maximum altitude 20:00:52 14° 173° (S) 1,259 ? -15.4°
Enters shadow 20:01:30 14° 160° (SSE) 1,288 ? -15.5°
